Погода в Елабуге

Погода в Елабуге : погода сейчас, прогноз погоды и архив. Всё, что Вы хотите узнать о погоде в Елабуге!

Поиск расширенной информации на нашем сайте:

Другие новости

Новости СМИ2

Главная страница сайта

Новости сайта

02.10.2013

Напоминаем, что на нашем новом сайте вы можете получить высокодетализированные прогнозы погоды по пунктам России, СНГ и мира (включающие важные для авиации метеовеличины, такие как направление и скорость ветра, видимость, явления погоды, количество и форма облачности, нижняя и верхняя граница облачности), а также ознакомиться с разнообразными материалами по авиационной метеорологии и подборкой полезных ссылок на эту тему.

Сайт Метеоцентр.Азия посвящён разработке технологий оптимизации авиаметеорологического обслуживания, включая проектирование и перспективное создание нескольких автоматизированных авиаметеорологических систем:
- система выпуска высокодетальных прогностических карт явлений погоды для нижнего воздушного пространства по России и ближнему зарубежью;
- система верификации прогнозов TAF (выпускаемых синоптиками официальных АМСГ РФ и ближнего зарубежья) и AUTOTAF (выпускаемых сайтом Метеоцентр.Азия) - выявление ошибок, онлайн-сопоставление с фактической погодой METAR, автоматическое внесение коррективов в прогнозы при резком отклонении фактической погоды от прогноза, подсчёт оправдываемости прогнозов по элементам и в целом;
- система обработки, анализа и отображения авиаметеорологической информации для применения провайдерами метеорологической информации.

Рекомендуем: http://teplo-dim.com/ купити електрокамін у львові - каміни електричні електрокаміни.

Погода в Елабуге - сегодня

Время (UTC), дата Ветер
(°,м/с) 
Видим.   Явления Облачность Т
(°С)
Тd
(°С)
f(%) Тe
(°С)
Pmin
(гПа)
dP
(гПа)
Po
(мм)
O2
(г/м3)
Тmin Tmax R s Состояние
почвы
03 20.03.17 310 (СЗ) 20000 м    8/0 верхняя 
[Ci fib]
+4.1 -8.3 40 +5  1018.1  -1.6  758  302           
06 20.03.17 260 (З) 20000 м    4/0 верхняя 
[Ci fib]
+4.8 -5.4 48 +4  1016.5  -1.5  757  300           
09 20.03.17 тихо ()   20000 м    4/0 верхняя 
[Ci fib]
+2.3 -5.5 56 +2  1015.2  -1.4  756  302    +5.2       
12 20.03.17 080 (В) 20000 м    ясно 
-0 -6.4 62 +1  1014.9  -0.3  755  305           
15 20.03.17 тихо ()   20000 м    ясно 
-4 -7.1 79 -4  1014.2  -0.8  755  309           
18 20.03.17 040 (СВ) 20000 м    10/0 верхняя 
[Ci fib]
-5.4 -8.6 78 -7  1013.4  -0.9  754  311           
21 20.03.17 020 (С) 20000 м    5/0 верхняя 
[Ci fib]
-7.5 -10.6 78 -9  1012.5  -1  753  313  -7.5      31  равномерный
мокрый или
старый снег
100% 
00 21.03.17 010 (С) 20000 м    3/0 средняя 
[Ac trans]
-4.3 -11.8 56 -7  1012  0.4  753  309           
03 21.03.17 030 (СВ) 20000 м    9/0 верхняя 
[Ci fib]
-0.1 -9.9 48 -2  1010.8  -1  752  304           
06 21.03.17 360 (С) 20000 м    8/0 верхняя 
[Ci fib]
+1.9 -9.1 44 1009.4  -1.3  751  302           
09 21.03.17 350 (С) 20000 м    8/0 верхняя 
[Ci fib]
+0.2 -9.4 48 -1  1009.6  0.2  751  303    +2.3       
12 21.03.17 020 (С) 20000 м    10/0 средняя, верхняя 
[Ac trans|Ci fib]
-2.4 -9.6 58 -3  1009.9  0.2  752  306           
15 21.03.17 020 (С) 20000 м    8/0 верхняя 
[Ci fib]
-4.7 -10.3 65 -6  1009.6  -0.3  751  309           
18 21.03.17 020 (С) 20000 м    6/0 верхняя 
[Ci fib]
-5 -10.2 67 -6  1009.5  0.1  751  309           
21 21.03.17 030 (СВ) 20000 м    10/0 верхняя 
[Ci fib]
-5 -10 68 -7  1009.9  0.4  751  309  -5.2      31  равномерный
мокрый или
старый снег
100% 
00 22.03.17 030 (СВ) 20000 м    10/8 630 м кучево-дожд., верхняя 
[Cb cap|Cs]
-4.1 -5.7 89 -7  1011.1  1.2  752  308           
03 22.03.17 030 (СВ) 4000 м  слаб. ливневой снег  10/6 600 м кучево-дожд., верхняя 
[Cb cap|Cs]
-3.3 -6.1 81 -7  1012  0.9  753  308           
06 22.03.17 010 (С) 20000 м  {ливн. осадки, снег}  10/0 средняя, верхняя 
[Ac trans|Cs]
+0.1 -7.8 55 -2  1012.3  0.4  753  304           
09 22.03.17 020 (С) 20000 м    8/1 600 м кучево-дожд., средняя, верхняя 
[Cb cap|Ac trans|Ci fib]
-1.3 -9.5 54 -2  1013.9  1.5  755  306    +0.3  0.0     
12 22.03.17 020 (С) 20000 м    10/0 средняя, верхняя 
[Ac trans|Ci fib]
-3.2 -11.6 52 -4  1015.8  1.8  756  309           
15 22.03.17 340 (С) 20000 м    3/0 верхняя 
[Ci fib]
-7.2 -12.5 66 -7  1017.2  1.3  757  314           
18 22.03.17 тихо ()   20000 м    ясно 
-7.5 -14.3 58 -8  1017.6  0.3  757  315           
21 22.03.17 тихо ()   20000 м    3/0 средняя, верхняя 
[Ac trans|Ci fib]
-8.1 -13.7 64 -8  1018.4  0.8  758  316  -8.3      31  равномерный
мокрый или
старый снег
100% 
00 23.03.17 320 (СЗ) 20000 м    5/0 верхняя 
[Ci fib]
-5.4 -14.3 50 -5  1019.4  1.1  759  313  -9.1         
03 23.03.17 260 (З) 20000 м    10/0 средняя, верхняя 
[Ac trans|Ci fib]
+1 -13.4 33 1018.8  -0.4  758  306           
Время (UTC), дата Ветер
(°,м/с) 
Видим.   Явления Облачность Т
(°С)
Тd
(°С)
f(%) Тe
(°С)
Pmin
(гПа)
dP
(гПа)
Po
(мм)
O2
(г/м3)
Тmin Tmax R s Состояние
почвы

Для получения пояснительной информации подведите курсор к названию столбца.

ПОГОДА в Елабуге - архив

Всё, что Вы хотите узнать о погоде в Елабуге - удобно и подробно!

Выберите нужную дату (начиная с 1 января 2015* года) и нажмите кнопку "Найти".
Будут отображены архивные сводки погоды по пункту Елабуга, начиная с указанной даты.


Отображать данные в формате CSV (для использования в таблицах Excel)


Внимание! Наш архив погоды предназначен исключительно для личного некоммерческого использования в познавательных целях. Если Вам необходимы официальные справки о состоянии погоды (для производственных, юридических, коммерческих и т.п. целей), обращайтесь в органы Росгидромета.

*Примечание: данная дата относится к архиву по метеостанциям СССР (Россия, СНГ, Балтия).
Архив по метеостанциям Зарубежной Европы и Азии (кроме Китая) хранится 10 дней, по другим регионам земного шара (Китай, Африка, Америка, Австралия, Океания) - 1 день.

Елабуга - район местоположения метеостанции


Название, широта, долгота, высота метеостанции:
Елабуга 48.8°ш. 135.9°д. 58 м над ур. моря [Российская Федерация]

Дополнительная информация

В oтличие oт бoльшинства пoгoдных сайтoв мы публикуем пoдрoбную метеoинфoрмацию в детальнoм прoфессиoнальнoм фoрмате.

Характеристики температуры и влажнoсти вoздуха измеряются на высoте 2 м в тени вдали oт зданий и деревьев.
Скoрoсть ветра измеряется на высoте 10 м (на урoвне рoста челoвека скoрoсть ветра ниже в 1.5-2 раза). Если метеoстанция нахoдится в гoрoде или в лесу, тo скoрoсть ветра занижена на 2-4 м/с пo сравнению с oткрытым местoм. Скoрoсть ветра над акватoриями крупных рек и oзёр, а также на вершинах хoлмoв на 2-5 м/с выше, чем в oбычных услoвиях.
Атмoсфернoе давление в разных тoчках местнoсти мoжет значительнo oтличаться oт давления на метеoстанции, в зависимoсти oт услoвий рельефа (при пoдъёме на 10 м давление пoнижается примернo на 1 мм рт.ст.).